Weather History for Winona, MN

Change the Weather History Date:

Saturday, March 23, 2013

  Actual Average Record
Temperature  
Mean Temperature 26 °F -  
Max Temperature 37 °F 42 °F 69 °F (2003)
Min Temperature 15 °F 26 °F 12 °F (1971)
Degree Days  
Heating Degree Days 39    
Moisture  
Dew Point 16 °F    
Average Humidity 62    
Maximum Humidity 80    
Minimum Humidity 41    
Precipitation  
Precipitation 0.00 in - - ()
Sea Level Pressure  
Sea Level Pressure 30.11 in    
Wind  
Wind Speed 2 mph (NW)    
Max Wind Speed 7 mph    
Max Gust Speed -    
Visibility 10 miles    
Events      
Averages and records for this station are not official NWS values.
T = Trace of Precipitation, MM = Missing Value Source: NWS Daily Summary

Daily Weather History Graph

Daily Weather History Graph

Search for Another Location

Airport:

Trip Planner

Search our weather history database for the weather conditions in past years. The results will help you decide how hot, cold, wet, or windy it might be!

Date:

Astronomy

Mar. 23, 2013 Rise Set
Actual Time 7:04 AM CDT 7:23 PM CDT
Civil Twilight 6:35 AM CDT 7:52 PM CDT
Nautical Twilight 6:01 AM CDT 8:26 PM CDT
Astronomical Twilight 5:26 AM CDT 9:01 PM CDT
Moon 3:44 PM CDT (3/23) 4:47 AM CDT (3/23)
Length of Visible Light 13h 17m
Length of Day
12h 19m
Waxing Gibbous, 85% of the Moon is Illuminated
Mar 23
Waxing Gibbous
Mar 27
Full
Apr 2
Last Quarter
Apr 10
New
Apr 18
First Quarter

Hourly Weather History & Observations

Time (CDT) Temp. Windchill Dew Point Humidity Pressure Visibility Wind Dir Wind Speed Gust Speed Precip Events Conditions
12:16 AM 24.8 °F 20.5 °F 15.8 °F 69% 30.10 in 10.0 mi WNW 3.5 mph - N/A   Clear
12:36 AM 23.0 °F - 14.0 °F 68% 30.10 in 10.0 mi Calm Calm - N/A   Clear
12:57 AM 23.0 °F - 14.0 °F 68% 30.11 in 10.0 mi Calm Calm - N/A   Clear
1:16 AM 24.8 °F - 14.0 °F 64% 30.11 in 10.0 mi Calm Calm - N/A   Clear
1:36 AM 23.0 °F - 14.0 °F 68% 30.11 in 10.0 mi Calm Calm - N/A   Clear
1:57 AM 23.0 °F - 15.8 °F 74% 30.10 in 10.0 mi Calm Calm - N/A   Clear
2:16 AM 23.0 °F - 14.0 °F 68% 30.09 in 10.0 mi Calm Calm - N/A   Clear
2:36 AM 23.0 °F - 15.8 °F 74% 30.09 in 10.0 mi Calm Calm - N/A   Clear
2:57 AM 23.0 °F - 15.8 °F 74% 30.09 in 10.0 mi Calm Calm - N/A   Clear
3:16 AM 23.0 °F - 15.8 °F 74% 30.09 in 10.0 mi Calm Calm - N/A   Clear
3:36 AM 21.2 °F - 15.8 °F 80% 30.08 in 10.0 mi Calm Calm - N/A   Clear
3:57 AM 21.2 °F - 14.0 °F 74% 30.07 in 10.0 mi Calm Calm - N/A   Clear
4:16 AM 21.2 °F - 14.0 °F 74% 30.08 in 10.0 mi Calm Calm - N/A   Clear
4:36 AM 19.4 °F - 14.0 °F 80% 30.07 in 10.0 mi Calm Calm - N/A   Clear
4:57 AM 19.4 °F - 14.0 °F 80% 30.09 in 10.0 mi Calm Calm - N/A   Clear
5:16 AM 19.4 °F 14.3 °F 14.0 °F 80% 30.12 in 10.0 mi NW 3.5 mph - N/A   Clear
5:36 AM 19.4 °F 12.8 °F 12.2 °F 74% 30.13 in 10.0 mi NNE 4.6 mph - N/A   Clear
5:57 AM 19.4 °F - 14.0 °F 80% 30.13 in 10.0 mi Calm Calm - N/A   Clear
6:16 AM 19.4 °F 14.3 °F 12.2 °F 74% 30.14 in 10.0 mi WSW 3.5 mph - N/A   Clear
6:36 AM 17.6 °F - 12.2 °F 79% 30.14 in 10.0 mi Calm Calm - N/A   Clear
6:57 AM 15.8 °F 8.6 °F 10.4 °F 79% 30.14 in 10.0 mi NNW 4.6 mph - N/A   Clear
7:16 AM 17.6 °F 12.3 °F 12.2 °F 79% 30.14 in 10.0 mi NW 3.5 mph - N/A   Clear
7:36 AM 19.4 °F 12.8 °F 12.2 °F 74% 30.14 in 10.0 mi NW 4.6 mph - N/A   Clear
7:56 AM 19.4 °F 14.3 °F 12.2 °F 74% 30.14 in 10.0 mi West 3.5 mph - N/A   Clear
8:16 AM 19.4 °F - 12.2 °F 74% 30.15 in 10.0 mi Calm Calm - N/A   Clear
8:37 AM 19.4 °F - 12.2 °F 74% 30.15 in 10.0 mi Calm Calm - N/A   Clear
8:56 AM 21.2 °F - 12.2 °F 68% 30.15 in 10.0 mi Calm Calm - N/A   Clear
9:16 AM 23.0 °F 17.0 °F 14.0 °F 68% 30.14 in 10.0 mi NNW 4.6 mph - N/A   Clear
9:37 AM 26.6 °F - 14.0 °F 59% 30.14 in 10.0 mi Calm Calm - N/A   Clear
9:56 AM 28.4 °F - 15.8 °F 59% 30.13 in 10.0 mi Calm Calm - N/A   Clear
10:16 AM 28.4 °F - 15.8 °F 59% 30.14 in 10.0 mi Calm Calm - N/A   Clear
10:37 AM 30.2 °F - 15.8 °F 55% 30.14 in 10.0 mi Calm Calm - N/A   Clear
10:56 AM 32.0 °F - 17.6 °F 55% 30.13 in 10.0 mi Calm Calm - N/A   Clear
11:16 AM 32.0 °F 28.7 °F 17.6 °F 55% 30.14 in 10.0 mi West 3.5 mph - N/A   Clear
11:37 AM 32.0 °F 28.7 °F 15.8 °F 51% 30.14 in 10.0 mi West 3.5 mph - N/A   Clear
11:56 AM 33.8 °F 30.8 °F 17.6 °F 52% 30.14 in 10.0 mi West 3.5 mph - N/A   Clear
12:16 PM 33.8 °F - 17.6 °F 52% 30.14 in 10.0 mi Calm Calm - N/A   Clear
12:37 PM 33.8 °F - 17.6 °F 52% 30.14 in 10.0 mi Calm Calm - N/A   Clear
12:56 PM 35.6 °F - 17.6 °F 48% 30.14 in 10.0 mi Calm Calm - N/A   Clear
1:16 PM 35.6 °F - 15.8 °F 44% 30.13 in 10.0 mi Calm Calm - N/A   Clear
1:37 PM 35.6 °F - 17.6 °F 48% 30.12 in 10.0 mi Calm Calm - N/A   Clear
1:56 PM 33.8 °F - 15.8 °F 48% 30.12 in 10.0 mi Calm Calm - N/A   Clear
2:16 PM 35.6 °F 32.8 °F 17.6 °F 48% 30.12 in 10.0 mi West 3.5 mph - N/A   Clear
2:37 PM 35.6 °F 31.7 °F 17.6 °F 48% 30.11 in 10.0 mi NW 4.6 mph - N/A   Clear
2:56 PM 35.6 °F - 15.8 °F 44% 30.11 in 10.0 mi Calm Calm - N/A   Clear
3:16 PM 35.6 °F - 17.6 °F 48% 30.10 in 10.0 mi Calm Calm - N/A   Clear
3:37 PM 35.6 °F 32.8 °F 19.4 °F 52% 30.09 in 10.0 mi North 3.5 mph - N/A   Clear
3:56 PM 37.4 °F 34.9 °F 17.6 °F 45% 30.08 in 10.0 mi NNW 3.5 mph - N/A   Clear
4:17 PM 37.4 °F 32.1 °F 17.6 °F 45% 30.08 in 10.0 mi NNW 6.9 mph - N/A   Clear
4:36 PM 37.4 °F 32.1 °F 17.6 °F 45% 30.07 in 10.0 mi NNW 6.9 mph - N/A   Clear
4:57 PM 37.4 °F 32.8 °F 17.6 °F 45% 30.07 in 10.0 mi NW 5.8 mph - N/A   Clear
5:16 PM 37.4 °F 34.9 °F 17.6 °F 45% 30.06 in 10.0 mi NNE 3.5 mph - N/A   Clear
5:36 PM 37.4 °F 34.9 °F 17.6 °F 45% 30.06 in 10.0 mi NNE 3.5 mph - N/A   Clear
5:56 PM 35.6 °F - 15.8 °F 44% 30.07 in 10.0 mi Calm Calm - N/A   Clear
6:17 PM 35.6 °F - 14.0 °F 41% 30.07 in 10.0 mi Calm Calm - N/A   Clear
6:36 PM 33.8 °F - 15.8 °F 48% 30.07 in 10.0 mi Calm Calm - N/A   Clear
6:56 PM 33.8 °F - 17.6 °F 52% 30.07 in 10.0 mi Calm Calm - N/A   Clear
7:17 PM 33.8 °F - 17.6 °F 52% 30.07 in 10.0 mi Calm Calm - N/A   Clear
7:36 PM 32.0 °F - 19.4 °F 60% 30.08 in 10.0 mi Calm Calm - N/A   Clear
7:56 PM 32.0 °F - 19.4 °F 60% 30.09 in 10.0 mi Calm Calm - N/A   Clear
8:17 PM 32.0 °F - 21.2 °F 64% 30.09 in 10.0 mi Calm Calm - N/A   Clear
8:36 PM 30.2 °F 26.7 °F 21.2 °F 69% 30.10 in 10.0 mi WNW 3.5 mph - N/A   Mostly Cloudy
8:56 PM 30.2 °F 26.7 °F 21.2 °F 69% 30.11 in 10.0 mi NNW 3.5 mph - N/A   Overcast
9:17 PM 32.0 °F 28.7 °F 21.2 °F 64% 30.11 in 10.0 mi NNW 3.5 mph - N/A   Overcast
9:36 PM 32.0 °F - 21.2 °F 64% 30.10 in 10.0 mi Calm Calm - N/A   Mostly Cloudy
9:56 PM 32.0 °F 28.7 °F 21.2 °F 64% 30.09 in 10.0 mi NW 3.5 mph - N/A   Scattered Clouds
10:17 PM 32.0 °F 27.5 °F 21.2 °F 64% 30.09 in 10.0 mi WNW 4.6 mph - N/A   Clear
10:36 PM 32.0 °F 27.5 °F 21.2 °F 64% 30.09 in 10.0 mi WNW 4.6 mph - N/A   Clear
10:56 PM 32.0 °F 27.5 °F 21.2 °F 64% 30.09 in 10.0 mi WNW 4.6 mph - N/A   Clear
11:17 PM 32.0 °F - 21.2 °F 64% 30.09 in 10.0 mi Calm Calm - N/A   Clear
11:36 PM 32.0 °F 28.7 °F 21.2 °F 64% 30.09 in 10.0 mi WNW 3.5 mph - N/A   Clear
11:56 PM 32.0 °F 28.7 °F 21.2 °F 64% 30.09 in 10.0 mi NW 3.5 mph - N/A   Clear